Regional Weather Roundup
Issued by NWS Wakefield, VA

Home | Current Version | Previous Version | Graphics & Text | Print | Product List | Glossary On
Versions: 1 2 3 4 5 6 7 8 9 10 11 12 13 14 15 16 17 18 19 20 21 22 23 24 25 26 27 28 29 30 31 32 33 34 35 36 37 38 39 40 41 42 43 44 45 46 47 48 49 50
000
ASUS41 KAKQ 312314
RWRAKQ

REGIONAL WEATHER ROUNDUP
NATIONAL WEATHER SERVICE WAKEFIELD VA
700 PM EDT TUE MAR 31 2015

Note: "fair" indicates few or no clouds below 12,000 feet with no
significant weather and/or obstructions to visibility. * = Denotes
station may not report precipitation (e.g., rain,snow,etc.),
thunder or fog.

VAZ042-051-052>054-056-010000-
NORTHERN VIRGINIA

CITY           SKY/WX    TMP DP  RH WIND       PRES   REMARKS
WASH NATIONAL  CLOUDY    66  39  37 NW14G21   29.64R
DULLES         CLOUDY    58  37  45 N24G36    29.68R
FORT BELVOIR   CLOUDY    63  41  45 W14       29.63R
QUANTICO       CLOUDY    67  36  31 NW9G30    29.63R
FREDERICKSBRG* LGT RAIN  68  38  32 NW13G25   29.62R
STAFFORD*      TSTM      65  32  29 NW14G22   29.67R
WARRENTON      CLOUDY    66  46  48 W8G17     29.62S THUNDER
CULPEPER*      CLOUDY    66  37  34 W13G22    29.63S THUNDER
MANASSAS*      CLOUDY    63  39  42 W13G21      N/A
LEESBURG*      TSTM      54  45  71 N16G25    29.70R
WINCHESTER     CLOUDY    57  32  38 NW12G21   29.69R
FRONT ROYAL*   MOCLDY    55  41  58 N10G32    29.68R
LURAY*         FAIR      63  41  45 SW5       29.64S
$$

VAZ048-049-060>072-079>083-010000-
CENTRAL AND SOUTH CENTRAL VIRGINIA

CITY           SKY/WX    TMP DP  RH WIND       PRES   REMARKS
RICHMOND       MOCLDY    73  29  19 SW22G35   29.60R
CHESTERFIELD*  NOT AVBL
PETERSBURG*    CLEAR     73  26  17 SW14G24   29.62S
HANOVER        LGT RAIN  71  31  22 W25G37    29.62R
TAPPAHANNOCK*  MOCLDY    71  21  15 SW23G33   29.61R
QUINTON*       FAIR      70  34  26 SW13G23   29.59S
CHARLOTTSVILLE LGT RAIN  67  36  31 N17G25    29.63R
GORDONSVILLE*  CLOUDY    66  37  34 N9G20     29.63R
ORANGE*        CLOUDY    64  39  39 NW8G26    29.65R
LOUISA*        LGT RAIN  70  36  28 NW15G22   29.60S
BUMPASS*       CLOUDY    69  35  28 NW9G23    29.60R
FARMVILLE*     MOCLDY    74  29  18 SW12G22   29.60R
CREWE*         FAIR      72  26  18 MISG      29.62S
FORT PICKETT*  FAIR      71  30  22 SW13G23   29.63F
CHASE CITY*    FAIR      74  33  22 SW6G17    29.66S
CLARKSVILLE*   FAIR      72  32  23 SW13G22   29.67S
SOUTH HILL*    CLEAR     70  33  24 SW15G21   29.72F
LAWRENCEVILLE* FAIR      70  34  25 SW12G23   29.66F
EMPORIA*       CLEAR     70  34  26 S9G16     29.69S
$$

VAZ088>098-010000-
SOUTHEAST VIRGINIA

CITY           SKY/WX    TMP DP  RH WIND       PRES   REMARKS
NORFOLK        CLEAR     68  30  24 SW26G36   29.63F
VIRGINIA BEACH PTCLDY    71  32  23 SW21G33   29.65F
NORFOLK NAVAL  PTCLDY    72  33  24 SW14G24   29.65F
WEST POINT*    CLEAR     71  24  16 SW16G25   29.60S
SALUDA*        FAIR      67  33  28 SW9G16    29.59S
NEWPORT NEWS   CLEAR     70  34  26 SW24G31   29.62F
LANGLEY AFB    CLEAR     70  32  24 SW23G35   29.65S
FORT EUSTIS    CLEAR     67  37  33 SW12G21   29.60F
WILLIAMSBURG*  CLEAR     72  37  28 SW15G24   29.62F
HR EXEC AP*    FAIR      70  34  26 SW15G21   29.67F
FRANKLIN*      CLEAR    N/A N/A N/A S14       29.67F
WAKEFIELD      CLEAR     69  33  26 S9G17     29.64F
$$

VAZ020-022-025-037-045-010000-
WEST CENTRAL AND SOUTHWEST VIRGINIA

CITY           SKY/WX    TMP DP  RH WIND       PRES   REMARKS
STAUNTON*      CLOUDY    64  35  34 NW5       29.67R
WAYNESBORO*    MOCLDY    65  35  32 NW17G33   29.65R
HOT SPRINGS VA CLOUDY    57  28  32 NW20G31   29.70R
LYNCHBURG      MOCLDY    72  32  23 MISG      29.65R
DANVILLE       PTCLDY    73  33  23 SW21G26   29.69S
SOUTH BOSTON*  FAIR      73  24  16 MISG      29.67S
MARTINSVILLE   CLEAR     74  32  21 W8        29.73S
ROANOKE        PTCLDY    72  31  22 W24G33    29.68R
BLACKSBURG     MOCLDY    66  33  29 W14G29    29.74R
DUBLIN*        PTCLDY    67  36  31 W15       29.74S
MARION*        MOCLDY    65  39  38 W20G29    29.80R
HILLSVILLE*    CLEAR     65  37  35 SW14G30   29.78S
RICHLANDS*     MOCLDY    65  32  28 W14G30    29.80R
WISE*          MOCLDY    66  32  28 W15G24    29.84R
ABINGDON*      PTCLDY    69  40  35 W12       29.81S
$$

MDZ021>025-VAZ099-100-010000-
SOUTHERN MARYLAND AND THE DELMARVA PENINSULA

CITY           SKY/WX    TMP DP  RH WIND       PRES   REMARKS
PATUXENT RIVER LGT RAIN  63  38  39 NW21G26   29.61R
BAY BRIDGE APT TSTM      55  45  67 S8        29.63F
LEONARDTOWN    CLOUDY    63  37  39 NW13G39   29.63R
DOVER          RAIN      56  45  67 SW6       29.63R
GEORGETOWN     LGT RAIN  61  38  42 W10G23    29.67R
EASTON         RAIN      55  48  76 CALM      29.71R
CAMBRIDGE      CLOUDY    59  41  51 N7        29.66R
SALISBURY      LGT RAIN  61  37  41 SW9       29.65R
OCEAN CITY     PTCLDY    52  37  56 W9G20     29.66R
WALLOPS ISLAND PTCLDY    51  39  63 SW16      29.63F
ACCOMACK*      CLEAR     57  37  47 S8        29.61F
$$

NCZ012>017-030>032-010000-
NORTH CENTRAL AND EASTERN NORTH CAROLINA

CITY           SKY/WX    TMP DP  RH WIND       PRES   REMARKS
ROANOKE RAPIDS FAIR      68  37  32 SW15G22   29.69F
RALEIGH        PTCLDY    71  34  25 SW18G24   29.74F
ELIZABETH CITY CLEAR     64  41  42 S10       29.72F
AHOSKIE*       CLEAR     67  36  31 S7        29.71S
EDENTON*       CLEAR     69  36  29 SW13G20   29.73S
CURRITUCK*     CLEAR     66  35  31 S8        29.72S
KILL DEVIL HLS CLEAR     61  39  44 SW8G17    29.72F
MANTEO         CLEAR     59  42  52 SW20G25   29.74F
CAPE HATTERAS  CLEAR     62  49  62 SW14G23   29.79F
TARBORO*       FAIR      71  35  26 SW14G22   29.74S
GOLDSBORO      CLEAR     72  40  31 SW15      29.75S
WASHINGTON     CLEAR     67  37  33 S13       29.76R
GREENVILLE     CLEAR     72  36  26 SW14G25   29.77F
NEW BERN       CLEAR     65  39  38 SW14G22   29.81R
WILMINGTON     CLEAR     65  41  41 SW17G28   29.84F
$$

VAZ048-010000-
ELSEWHERE

CITY           SKY/WX    TMP DP  RH WIND       PRES   REMARKS
HARRISBURG PA  CLOUDY    45  35  68 N3        29.73R
BALTIMORE      CLOUDY    58  42  55 NW20G28   29.64R
ANNAPOLIS      LGT RAIN  56  45  66 S12       29.60F
ANDREWS AFB    CLOUDY    59  45  58 W5        29.61F THUNDER
PHILADELPHIA   CLOUDY    45  33  63 NE15      29.70R
HENDERSON NC   CLEAR     71  27  19 SW20G25   29.70S
GREENSBORO     CLEAR     71  30  21 W15G26    29.74S
ROCKY MOUNT    CLEAR     70  36  28 SW15      29.73F
$$

VAZ100-010000-
MARINE

STATION/POSITION TIME  TEMP    WIND        PRES    WAVE   SWELL
                       AIR SEA DIR/SP/G            HT/PER HT/PER
                 (UTC) (F)     (DEG/KT/KT) (MB)    (FT/S) (FT/S)
BRANDYWINE LGT   2200   47 41  180/ 11/ 15 1004.1R
CAPE MAY NJ      2200   49 45  160/ 12/ 16 1003.8R
LEWES DE         2200   60 42  180/  6/  8 1003.6R
15NM E FENWICK I 2250   45 41              1004.5R   5/ 5
OCEAN-CITY-INLET 2200   52 42  220/ 17/ 20 1003.6F
WACHAPREAGUE VA  2200   53 52  220/ 17/ 23 1003.4F
THOMAS POINT MD  2300                        N/A
COVE POINT MD    2200   68     270/  9/ 13 1001.3R
SOLOMONS ISLAND  2200      46                N/A
BISHOPS HEAD MD  2212          190/ 17/ 21   N/A
PINEY POINT MD   2200          250/ 11/ 14   N/A
CAMBRIDGE MD     2200   60 43   CALM  /  8 1002.6R
LEWISETTA VA     2200   69 48              1000.4F
RAPPAHANNOCK LGT 2200          180/ 19/ 20 1003.4F
STINGRAY PT      2300   60 44  220/ 16/ 17   N/A     2/ 2
YORK RVR RNG VA  2200   63     230/ 22/ 30 1002.6R
YORKTOWN VA      2200   69 44  230/ 17/ 31 1002.9F
DOMINION TERM VA 2200   64     230/ 22/ 27 1004.2F
KIPTOPEKE VA     2200      53  220/ 14/ 16   N/A
CHES BAY BRIDGE  2200   65 44  200/ 22/ 25 1003.6F
CAPE HENRY VA    2200   69     210/ 14/ 25 1003.4F
CHESAPEAKE LGHT  2200   50     180/ 28/ 29 1004.9F
WILLOUBY STN VA  2200   64     230/ 24/ 31 1004.4F
S CRANEY ISL VA  2200          220/ 15/ 24 1004.4F
CAPE HENRY BUOY  2228      42                N/A     3/ 4
1ST LANDING BUOY 2300   63     220/ 21/ 29 1003.1F   2/ 3
OFFSHORE WE BUOY 2211      41                N/A     4/ 4   2/ 8
64NM E OF VA BCH 2250   54 48  210/ 19/ 21 1006.1F   4/ 5   2/11
DUCK PIER NC     2200   62 43  200/ 15/ 19 1005.6F
44056 DUCK FRF   2211      43                N/A     2/11
OREGON INLET NC  2200   58 51  190/ 22/ 25 1007.6F
HATTERAS NC      2200   64 56  220/ 12/ 19 1009.7F
CAPE LOOKOUT NC  2300   61     210/ 12/ 16 1009.7F
$$


USA.gov is the U.S. government's official web portal to all federal, state and local government web resources and services.